Abilene Dyess, TX

4:25 AM CST on January 17, 2018 (GMT -0600)
Dyess Air Force Base

Weather History for KDYS - February, 2013

Change the Weather History Date:

Friday, February 15, 2013

  Actual Average Record
Temperature  
Mean Temperature 37 °F -  
Max Temperature 49 °F 59 °F 89 °F (2000)
Min Temperature 25 °F 39 °F 17 °F (2007)
Degree Days  
Heating Degree Days 28    
Moisture  
Dew Point 24 °F    
Average Humidity 55    
Maximum Humidity 81    
Minimum Humidity 23    
Precipitation  
Precipitation 0.00 in - - ()
Sea Level Pressure  
Sea Level Pressure 30.31 in    
Wind  
Wind Speed 13 mph (NNE)    
Max Wind Speed 17 mph    
Max Gust Speed 24 mph    
Visibility 10 miles    
Events      
Averages and records for this station are not official NWS values.
T = Trace of Precipitation, MM = Missing Value Source: NWS Daily Summary

Daily Weather History Graph

Daily Weather History Graph

Search for Another Location

Airport or City:

Trip Planner

Search our weather history database for the weather conditions in past years. The results will help you decide how hot, cold, wet, or windy it might be!

Date:

Astronomy

Feb. 15, 2013 Rise Set
Actual Time 7:21 AM CST 6:25 PM CST
Civil Twilight 6:56 AM CST 6:50 PM CST
Nautical Twilight 6:27 AM CST 7:19 PM CST
Astronomical Twilight 5:59 AM CST 7:48 PM CST
Moon 10:21 AM CST (2/15) No Moon Set
Length of Visible Light 11h 53m
Length of Day
11h 03m
Waxing Crescent, 30% of the Moon is Illuminated
Feb 15
Waxing Crescent
Feb 17
First Quarter
Feb 25
Full
Mar 4
Last Quarter
Mar 11
New

Hourly Weather History & Observations

Time (CST) Temp. Windchill Dew Point Humidity Pressure Visibility Wind Dir Wind Speed Gust Speed Precip Events Conditions
12:55 AM 45.1 °F 38.4 °F 34.3 °F 66% 30.11 in 10.0 mi NNE 15.0 mph - N/A   Clear
1:55 AM 44.1 °F 37.4 °F 31.6 °F 62% 30.14 in 10.0 mi NNE 13.8 mph 21.9 mph N/A   Clear
2:55 AM 42.8 °F 35.8 °F 31.1 °F 63% 30.17 in 10.0 mi North 13.8 mph - N/A   Clear
3:55 AM 41.0 °F 33.5 °F 33.1 °F 73% 30.19 in 10.0 mi North 13.8 mph - N/A   Clear
4:55 AM 39.7 °F 31.9 °F 33.4 °F 78% 30.22 in 10.0 mi North 13.8 mph - N/A   Clear
5:17 AM 41.0 °F 33.5 °F 33.8 °F 76% 30.24 in 10.0 mi North 13.8 mph - N/A   Mostly Cloudy
5:55 AM 39.7 °F 31.5 °F 33.8 °F 79% 30.26 in 10.0 mi North 15.0 mph - N/A   Mostly Cloudy
5:58 AM 39.2 °F 30.2 °F 33.8 °F 81% 30.26 in 10.0 mi North 17.3 mph - N/A   Mostly Cloudy
6:55 AM 39.4 °F 31.8 °F 32.9 °F 78% 30.29 in 10.0 mi North 12.7 mph - N/A   Mostly Cloudy
7:55 AM 39.7 °F 32.7 °F 33.1 °F 77% 30.32 in 10.0 mi North 11.5 mph - N/A   Overcast
8:55 AM 40.5 °F 31.8 °F 32.5 °F 73% 30.35 in 10.0 mi NNE 17.3 mph - N/A   Mostly Cloudy
9:41 AM 41.0 °F 33.1 °F 28.4 °F 61% 30.37 in 10.0 mi NE 15.0 mph 24.2 mph N/A   Overcast
9:55 AM 41.5 °F 33.8 °F 26.4 °F 55% 30.37 in 10.0 mi NE 15.0 mph 23.0 mph N/A   Mostly Cloudy
10:55 AM 43.5 °F 36.4 °F 19.0 °F 38% 30.38 in 10.0 mi NE 15.0 mph - N/A   Mostly Cloudy
11:55 AM 44.8 °F 37.7 °F 15.3 °F 31% 30.38 in 10.0 mi NE 16.1 mph 24.2 mph N/A   Mostly Cloudy
12:55 PM 45.0 °F 38.9 °F 15.4 °F 31% 30.37 in 10.0 mi NNE 12.7 mph 19.6 mph N/A   Overcast
1:55 PM 48.0 °F - 17.4 °F 30% 30.32 in 10.0 mi NE 16.1 mph 19.6 mph N/A   Mostly Cloudy
2:55 PM 48.9 °F - 16.5 °F 28% 30.31 in 10.0 mi NNE 12.7 mph - N/A   Overcast
3:55 PM 49.6 °F - 12.6 °F 23% 30.31 in 10.0 mi NNE 12.7 mph 20.7 mph N/A   Overcast
4:55 PM 46.9 °F - 12.2 °F 25% 30.33 in 10.0 mi NNE 12.7 mph - N/A   Overcast
5:55 PM 44.4 °F 38.2 °F 14.5 °F 30% 30.35 in 10.0 mi North 12.7 mph - N/A   Overcast
6:55 PM 43.2 °F 39.0 °F 17.1 °F 35% 30.37 in 10.0 mi Variable 6.9 mph - N/A   Overcast
7:55 PM 36.5 °F 31.8 °F 18.0 °F 47% 30.40 in 10.0 mi NNW 5.8 mph - N/A   Partly Cloudy
8:55 PM 34.3 °F - 19.6 °F 55% 30.40 in 10.0 mi Calm Calm - N/A   Clear
9:55 PM 29.1 °F 25.4 °F 16.3 °F 59% 30.41 in 10.0 mi SSW 3.5 mph - N/A   Clear
10:55 PM 25.9 °F 18.2 °F 15.6 °F 65% 30.41 in 10.0 mi SW 6.9 mph - N/A   Clear
11:55 PM 27.7 °F 20.4 °F 16.9 °F 64% 30.41 in 10.0 mi SW 6.9 mph - N/A   Clear